Flag for U.S.A. Weather past 2 weeks in Leesburg, Virginia, U.S.A.

Now
52 °F

Light rain. Overcast.


Feels Like: 49 °F
Forecast: 36 / 57 °F
Wind: 7 mph from North

Location: Leesburg / Godfrey

Current Time: Dec 25, 2014 at 3:02:23 AM

Latest Report: Dec 25, 2014 at 2:15 AM


Visibility: 10 mi

Pressure: 29.65 "Hg

Humidity: 94%

Dew point: 50 °F

Location of LeesburgLocation

Historic Weather in Leesburg — Graph

°F

Leesburg temperature yesterday

Maximum temperature yesterday: 55 °F (at 11:55 PM)
Minimum temperature yesterday: 43 °F (at 12:15 AM)
Average temperature yesterday: 47 °F

Past Weeks' High & Low Weather Summary

 TemperatureHumidityPressure
High57 °F (Dec 15, 1:55 PM)100% (Dec 15, 2:15 AM)30.37 "Hg (Dec 15, 2:15 AM)
Low25 °F (Dec 20, 5:55 AM)33% (Dec 11, 6:55 PM)29.53 "Hg (Dec 24, 10:15 PM)
Average39 °F80%30.06 "Hg
* Reported Dec 10 1:15 AM — Dec 25 1:55 AM, Leesburg, Weather by CustomWeather, © 2014

Note: Actual official high and low records may vary slightly from our data, if they occured in-between our weather recording intervals... More about our weather records

Advertising

Leesburg weather history for previous 24 hours

 ConditionsComfort  
Time TempWeatherWind HumidityBarometerVisibility
1:55 AM
Dec 25
52 °FMostly cloudy.6 mph100%29.64 "Hg10 mi
1:15 AM52 °FLight rain. Mostly cloudy.8 mph100%29.63 "Hg10 mi
12:55 AM54 °FLight rain. Mostly cloudy.12 mph100%29.62 "Hg10 mi
12:35 AM54 °FLow clouds.No wind100%29.60 "Hg10 mi
12:15 AM55 °FOvercast.6 mph100%29.59 "Hg10 mi
11:55 PM
Dec 24
55 °FOvercast.5 mph100%29.57 "Hg10 mi
11:15 PM54 °FPassing clouds.8 mph100%29.54 "Hg10 mi
10:35 PM54 °FLow clouds.9 mph100%29.56 "Hg10 mi
10:15 PM54 °FLow clouds.15 mph100%29.53 "Hg10 mi
9:55 PM54 °FFog.12 mph100%29.55 "Hg3 mi
9:35 PM52 °FFog.10 mph100%29.56 "Hg2 mi
9:15 PM52 °FFog.9 mph100%29.55 "Hg2 mi
8:55 PM52 °FFog.8 mph100%29.56 "Hg1 mi
8:15 PM50 °FFog.7 mph100%29.58 "Hg1 mi
7:55 PM50 °FFog.6 mph100%29.59 "Hg1 mi
7:35 PM50 °FFog.6 mph100%29.59 "Hg1 mi
7:15 PM50 °FFog.7 mph100%29.59 "Hg1 mi
6:55 PM50 °FFog.7 mph100%29.60 "Hg1 mi
6:35 PM50 °FFog.No wind100%29.61 "Hg1 mi
6:15 PM48 °FFog.No wind100%29.62 "Hg1 mi
5:55 PM48 °FFog.No wind100%29.62 "Hg1 mi
5:35 PM48 °FFog.No wind100%29.61 "Hg0 mi
5:15 PM48 °FFog.3 mph100%29.62 "Hg1 mi
4:55 PM48 °FFog.5 mph100%29.62 "Hg1 mi
4:35 PM48 °FFog.No wind100%29.64 "Hg0 mi
4:15 PM48 °FFog.5 mph100%29.64 "Hg1 mi
3:55 PM48 °FFog.3 mph100%29.66 "Hg1 mi
3:35 PM48 °FDrizzle. Low clouds.No wind100%29.66 "Hg3 mi
3:15 PM48 °FFog.No wind100%29.67 "Hg2 mi
2:55 PM48 °FFog.No wind100%29.67 "Hg4 mi
2:35 PM48 °FDrizzle. Low clouds.No wind100%29.66 "Hg5 mi
2:15 PM48 °FLight rain. Low clouds.No wind100%29.66 "Hg5 mi
1:55 PM48 °FLight rain. Low clouds.No wind100%29.67 "Hg4 mi
1:35 PM48 °FFog.No wind100%29.69 "Hg4 mi
1:15 PM48 °FLight rain. Low clouds.No wind100%29.69 "Hg4 mi
12:55 PM48 °FLight rain. Low clouds.No wind100%29.71 "Hg2 mi
12:35 PM46 °FLow clouds.No wind100%29.73 "Hg7 mi
12:15 PM46 °FLow clouds.No wind100%29.74 "Hg7 mi
11:55 AM46 °FLight rain. Low clouds.No wind100%29.75 "Hg7 mi
11:35 AM46 °FRain. Low clouds.3 mph100%29.76 "Hg7 mi
11:15 AM46 °FDrizzle. Low clouds.No wind100%29.78 "Hg10 mi
10:55 AM46 °FLight rain. More clouds than sun.No wind100%29.80 "Hg7 mi
10:15 AM45 °FLight rain. Mostly cloudy.No wind100%29.83 "Hg5 mi
9:55 AM45 °FRain. Cloudy.No wind100%29.84 "Hg5 mi
9:15 AM45 °FLight rain. Overcast.No wind100%29.84 "Hg1 mi
8:55 AM45 °FLight rain. More clouds than sun.No wind100%29.85 "Hg5 mi
8:35 AM45 °FLight rain. Cloudy.No wind100%29.85 "Hg5 mi
8:15 AM43 °FLight rain. Mostly cloudy.No wind100%29.86 "Hg1 mi
7:55 AM43 °FLight rain. More clouds than sun.No wind100%29.87 "Hg3 mi
7:35 AM43 °FLight rain. More clouds than sun.No wind100%29.87 "Hg2 mi
7:15 AM43 °FLight rain. Mostly cloudy.No wind100%29.88 "Hg2 mi
6:55 AM43 °FLight rain. Mostly cloudy.No wind100%29.88 "Hg2 mi
6:15 AM43 °FDrizzle. Low clouds.No wind100%29.89 "Hg1 mi
5:55 AM43 °FLight rain. Low clouds.No wind100%29.89 "Hg1 mi
5:35 AM43 °FLight rain. Mostly cloudy.No wind100%29.90 "Hg2 mi
5:15 AM43 °FRain. Mostly cloudy.No wind100%29.92 "Hg3 mi
4:55 AM43 °FLight rain. Overcast.No wind100%29.93 "Hg3 mi
4:35 AM43 °FRain. Low clouds.No wind100%29.94 "Hg1 mi
4:15 AM43 °FDrizzle. Mostly cloudy.No wind100%29.95 "Hg3 mi
3:55 AM43 °FLight rain. Overcast.No wind100%29.95 "Hg2 mi
3:15 AM43 °FLight rain. Mostly cloudy.No wind100%29.96 "Hg4 mi
Weather by CustomWeather, © 2014

See weather overviewHow to use our weather pages